Time,TemperatureF,DewpointF,PressureIn,WindDirection,WindDirectionDegrees,WindSpeedMPH,WindSpeedGustMPH,Humidity,HourlyPrecipIn,Conditions,Clouds,dailyrainin,SolarRadiationWatts/m^2,SoftwareType,DateUTC
2013-01-06 14:22:00,36.0,-6.0,-100.00,SSW,197,9.0,13.0,16,0.00,,,0.00,528.000000,,2013-01-06 21:22:00,
2013-01-06 14:33:00,36.0,-6.0,-100.00,SSW,197,9.0,13.0,16,0.00,,,0.00,528.000000,,2013-01-06 21:33:00,
2013-01-06 14:42:00,36.0,-6.0,-100.00,SSW,197,9.0,13.0,16,0.00,,,0.00,528.000000,,2013-01-06 21:42:00,
2013-01-06 14:52:00,36.0,-6.0,-100.00,SSW,197,9.0,13.0,16,0.00,,,0.00,528.000000,,2013-01-06 21:52:00,
2013-01-06 15:22:00,35.0,-7.0,-100.00,SSW,194,7.0,19.0,16,0.00,,,0.00,468.000000,,2013-01-06 22:22:00,
2013-01-06 15:33:00,35.0,-7.0,-100.00,SSW,194,7.0,19.0,16,0.00,,,0.00,468.000000,,2013-01-06 22:33:00,
2013-01-06 15:43:00,35.0,-7.0,-100.00,SSW,194,7.0,19.0,16,0.00,,,0.00,468.000000,,2013-01-06 22:43:00,
2013-01-06 15:52:00,35.0,-7.0,-100.00,SSW,194,7.0,19.0,16,0.00,,,0.00,468.000000,,2013-01-06 22:52:00,
2013-01-06 16:22:00,32.0,-13.0,-100.00,South,181,5.0,14.0,13,0.00,,,0.00,239.000000,,2013-01-06 23:22:00,
2013-01-06 16:33:00,32.0,-13.0,-100.00,South,181,5.0,14.0,13,0.00,,,0.00,239.000000,,2013-01-06 23:33:00,
2013-01-06 16:43:00,32.0,-13.0,-100.00,South,181,5.0,14.0,13,0.00,,,0.00,239.000000,,2013-01-06 23:43:00,
2013-01-06 16:52:00,32.0,-13.0,-100.00,South,181,5.0,14.0,13,0.00,,,0.00,239.000000,,2013-01-06 23:52:00,
2013-01-06 17:23:00,27.0,-10.0,-100.00,West,264,3.0,6.0,19,0.00,,,0.00,49.000000,,2013-01-07 00:23:00,
2013-01-06 17:33:00,27.0,-10.0,-100.00,West,264,3.0,6.0,19,0.00,,,0.00,49.000000,,2013-01-07 00:33:00,
2013-01-06 17:42:00,27.0,-10.0,-100.00,West,264,3.0,6.0,19,0.00,,,0.00,49.000000,,2013-01-07 00:42:00,
2013-01-06 17:52:00,27.0,-10.0,-100.00,West,264,3.0,6.0,19,0.00,,,0.00,49.000000,,2013-01-07 00:52:00,
2013-01-06 18:23:00,26.0,-14.0,-100.00,West,276,2.0,5.0,16,0.00,,,0.00,1.000000,,2013-01-07 01:23:00,
2013-01-06 18:32:00,26.0,-14.0,-100.00,West,276,2.0,5.0,16,0.00,,,0.00,1.000000,,2013-01-07 01:32:00,
2013-01-06 18:42:00,26.0,-14.0,-100.00,West,276,2.0,5.0,16,0.00,,,0.00,1.000000,,2013-01-07 01:42:00,
2013-01-06 18:52:00,26.0,-14.0,-100.00,West,276,2.0,5.0,16,0.00,,,0.00,1.000000,,2013-01-07 01:52:00,
2013-01-06 19:22:00,17.0,-8.0,-100.00,ENE,60,6.0,7.0,31,0.00,,,0.00,0.000000,,2013-01-07 02:22:00,
2013-01-06 19:32:00,17.0,-8.0,-100.00,ENE,60,6.0,7.0,31,0.00,,,0.00,0.000000,,2013-01-07 02:32:00,
2013-01-06 19:42:00,17.0,-8.0,-100.00,ENE,60,6.0,7.0,31,0.00,,,0.00,0.000000,,2013-01-07 02:42:00,
2013-01-06 19:52:00,17.0,-8.0,-100.00,ENE,60,6.0,7.0,31,0.00,,,0.00,0.000000,,2013-01-07 02:52:00,
2013-01-06 20:22:00,13.0,-11.0,-100.00,ENE,62,7.0,9.0,32,0.00,,,0.00,0.000000,,2013-01-07 03:22:00,
2013-01-06 20:33:00,13.0,-11.0,-100.00,ENE,62,7.0,9.0,32,0.00,,,0.00,0.000000,,2013-01-07 03:33:00,
2013-01-06 20:43:00,13.0,-11.0,-100.00,ENE,62,7.0,9.0,32,0.00,,,0.00,0.000000,,2013-01-07 03:43:00,
2013-01-06 20:52:00,13.0,-11.0,-100.00,ENE,62,7.0,9.0,32,0.00,,,0.00,0.000000,,2013-01-07 03:52:00,
2013-01-06 21:12:00,9.0,-13.0,-100.00,ENE,62,8.0,9.0,35,0.00,,,0.00,0.000000,,2013-01-07 04:12:00,
2013-01-06 21:22:00,9.0,-13.0,-100.00,ENE,62,8.0,9.0,35,0.00,,,0.00,0.000000,,2013-01-07 04:22:00,
2013-01-06 21:32:00,9.0,-13.0,-100.00,ENE,62,8.0,9.0,35,0.00,,,0.00,0.000000,,2013-01-07 04:32:00,
2013-01-06 21:42:00,9.0,-13.0,-100.00,ENE,62,8.0,9.0,35,0.00,,,0.00,0.000000,,2013-01-07 04:42:00,
2013-01-06 21:52:00,9.0,-13.0,-100.00,ENE,62,8.0,9.0,35,0.00,,,0.00,0.000000,,2013-01-07 04:52:00,
2013-01-06 22:22:00,7.0,-13.0,-100.00,ENE,66,8.0,9.0,39,0.00,,,0.00,0.000000,,2013-01-07 05:22:00,
2013-01-06 22:33:00,7.0,-13.0,-100.00,ENE,66,8.0,9.0,39,0.00,,,0.00,0.000000,,2013-01-07 05:33:00,
2013-01-06 22:42:00,7.0,-13.0,-100.00,ENE,66,8.0,9.0,39,0.00,,,0.00,0.000000,,2013-01-07 05:42:00,
2013-01-06 22:52:00,7.0,-13.0,-100.00,ENE,66,8.0,9.0,39,0.00,,,0.00,0.000000,,2013-01-07 05:52:00,
2013-01-06 23:22:00,5.0,-14.0,-100.00,ENE,61,7.0,10.0,40,0.00,,,0.00,0.000000,,2013-01-07 06:22:00,
2013-01-06 23:32:00,5.0,-14.0,-100.00,ENE,61,7.0,10.0,40,0.00,,,0.00,0.000000,,2013-01-07 06:32:00,
2013-01-06 23:42:00,5.0,-14.0,-100.00,ENE,61,7.0,10.0,40,0.00,,,0.00,0.000000,,2013-01-07 06:42:00,
2013-01-06 23:52:00,5.0,-14.0,-100.00,ENE,61,7.0,10.0,40,0.00,,,0.00,0.000000,,2013-01-07 06:52:00,